Hourly Weather Roundup
Issued by NWS Central Illinois

Home | Current Version | Previous Version | Text Only | Print | Product List | Glossary On
Versions: 1 2 3 4 5 6 7 8 9 10 11 12 13 14 15 16 17 18 19 20 21 22 23 24 25 26 27 28 29 30 31 32 33 34 35 36 37 38 39 40 41 42 43 44 45 46 47 48 49 50
000
NZUS43 KILX 281310
HWRILX

AREA WEATHER ROUNDUP
NATIONAL WEATHER SERVICE, LINCOLN IL
800 AM CDT FRI AUG 28 2015


CITY           SKY/WX    TMP DP  RH WIND       PRES   REMARKS
BLOOMINGTON    CLOUDY    64  61  90 S7        30.15R
CHAMPAIGN      CLOUDY    62  59  90 S3        30.16R
DANVILLE       MOSUNNY   63  60  92 CALM      30.14R
DECATUR        CLOUDY    63  59  87 CALM      30.14R
EFFINGHAM      MOSUNNY   63  59  87 E3        30.17S
FLORA          SUNNY     61  59  93 CALM      30.16S
GALESBURG      CLOUDY    60  58  94 SE3       30.11F
JACKSONVILLE   PTSUNNY   66  61  83 SE6       30.12R
LACON          CLOUDY    60  58  90 SE3       30.12S
LAWRENCEVILLE  SUNNY     62  59  90 E5        30.17R
LITCHFIELD     MOSUNNY   61  58  89 SE5       30.13S
$$


CITY           SKY/WX    TMP DP  RH WIND       PRES   REMARKS
LINCOLN        CLOUDY    63  59  88 CALM      30.14S
MACOMB         CLOUDY    57  57  99 E3        30.13S FOG
MATTOON        PTSUNNY   64  58  80 S6        30.15R
MT CARMEL AP   SUNNY     61  57  88 CALM      30.17R
OLNEY-NOBLE AP   N/A     61  59  94 CALM      30.17R
PARIS          MOSUNNY   64  62  93 S5        30.17R
PEORIA         CLOUDY    64  59  83 CALM      30.13R
PONTIAC        CLOUDY    62  61  96 SE3       30.14F
RANTOUL        CLOUDY    62  59  91 S3        30.16R
ROBINSON       SUNNY     60  58  96 CALM      30.18R
SPRINGFIELD    PTSUNNY   65  61  87 SE6       30.12S
TAYLORVILLE    PTSUNNY   61  59  94 SE6       30.13S
$$

...REGIONAL REPORTS...


CITY           SKY/WX    TMP DP  RH WIND       PRES   REMARKS
CHICAGO O`HARE CLOUDY    64  58  80 S5        30.14R
KANKAKEE       CLOUDY    60  58  93 CALM      30.16R
MOLINE         CLOUDY    62  58  86 E6        30.10F
MOUNT STERLING CLOUDY    60  59  96 CALM      30.11R
MOUNT VERNON   SUNNY     61  55  82 CALM      30.15F
PITTSFIELD     PTSUNNY   62  60  93 CALM      30.11S
QUINCY         CLOUDY    63  59  87 SE7       30.09R
ROCKFORD       CLOUDY    62  57  83 SE3       30.15R
$$


CITY           SKY/WX    TMP DP  RH WIND       PRES   REMARKS
BURLINGTON     CLOUDY    63  60  90 E5        30.09F
CEDAR RAPIDS   CLOUDY    60  60 100 E10       30.04F
DES MOINES     LGT RAIN  65  61  87 SE15      29.96F
KIRKSVILLE     CLOUDY    64  59  83 SE8       30.04S
OTTUMWA        CLOUDY    62  60  93 SE10      30.01F
ST LOUIS       PTSUNNY   67  60  78 SE5       30.12S
$$


CITY           SKY/WX    TMP DP  RH WIND       PRES   REMARKS
TERRE HAUTE    SUNNY     62  58  86 SE5       30.17R
EVANSVILLE     SUNNY     64  59  83 E6        30.17R
INDIANAPOLIS   MOSUNNY   63  57  81 SE5       30.17R
LAFAYETTE      SUNNY     62  58  86 CALM      30.16S
MADISON        CLOUDY    62  56  80 S7        30.12S
MILWAUKEE      PTSUNNY   62  57  83 S6        30.15S HAZE
$$




USA.gov is the U.S. government's official web portal to all federal, state and local government web resources and services.